Погода в Куйтеже

Россия / Республика Карелия     60°59′38″N   33°12′51″E
темп.,
°C
ветер,
м/с
пор.,
м/с
влажн.,
%
обл.,
%
осадки,
мм/ч
давл.,
гПа
погр.,
м
24 мая, вт
вт2400:00+4с31151100 0.0 1010513
03:00+2с31062100 0.0 1011455
06:00+3с4105996 0.0 1011554
09:00+7с485098 0.0 1011966
12:00+10с584598 0.0 10121430
15:00+11ссв474695 0.0 10121625
18:00+9всв466492 0.0 10141058
21:00+6всв368090 0.0 1015609
25 мая, ср
ср2500:00+3всв138898 0.0 1016116
03:00+3св138791 0.0 1017320
06:00+4ссв128386 0.0 1017459
09:00+7св236896 0.0 1016841
12:00+11св235688 0.0 10151201
15:00+11св2355100 0.0 10141149
18:00+11ююз1160100 0.0 1014440
21:00+7юв2380100 0.0 101385
26 мая, чт
чт2600:00+5вюв2585100 0.0 1012133
03:00+4в2584100 0.0 1011139
06:00+5в2576100 0.0 1010254
09:00+8в3462100 0.0 1008615
12:00+12в3350100 0.0 10061081
15:00+14вюв2244100 0.0 10041422
18:00+14вюв224592 0.0 10011416
21:00+9всв226679 0.0 99924
27 мая, пт
пт2700:00+6в248298 0.0 99778
03:00+5в2281100 0.0 99641
06:00+7вюв017399 0.0 99475
09:00+13ююз1153100 0.0 993552
12:00+14юз2247100 0.0 9931363
15:00+11юз3467100 0.1 994489
18:00+9ю2489100 0.3 994307
21:00+9юв2394100 0.3 99495
28 мая, сб
сб2800:00+8ююз1396100 0.0 993109
03:00+7юз1597100 0.5 993188
06:00+8юз2394100 0.5 993167
09:00+10юз2283100 0.8 993458
12:00+15з225789 0.7 9931300
15:00+15з334334 1.0 9931843
18:00+14зсз334820 0.1 9941452
21:00+9зюз257897 0.2 995103